Check out our new BloomSky Weather System.

Active alerts

Houston, TX
  Details for Houston, TX Dense Fog Advisory


Thunder radar  blitzortung!


Rain radar more information rain snow radar


Visit our other weather sites:

Template documentation
and downloads

And another site



Weather Underground History page Text

Daily Summary for November 24, 2017 Units:  English    Metric   Both
« Previous Day
Next Day »
Daily Weekly Monthly Yearly Custom
  High: Low: Average:
Temperature: 73.0 °F 38.7 °F 56.2 °F
Dew Point: 50.4 °F 37.6 °F 43.9 °F
Humidity: 98 % 32 % 69 %
Wind Speed: 7.0 mph 0.0 mph 1.2 mph
Wind Gust: 12.0 mph - -
Wind:- - South
Pressure: 30.07 in 29.89 in -
Precipitation: 0.00 in    
Historical Graphs
 
 
Tabular Data for November 24, 2017
Time Temperature Dew Point Pressure Wind Wind Speed Wind Gust Humidity Rainfall Rate (Hourly)
00:01 43.2 °F 41.0 °F 30.07 in Calm     92 % 0.00 in
00:06 43.0 °F 40.5 °F 30.07 in Calm     91 % 0.00 in
00:11 43.0 °F 40.8 °F 30.06 in Calm     92 % 0.00 in
00:16 43.0 °F 40.8 °F 30.06 in Calm     92 % 0.00 in
00:21 43.0 °F 41.2 °F 30.06 in Calm     93 % 0.00 in
00:26 43.0 °F 41.2 °F 30.06 in Calm     93 % 0.00 in
00:31 43.0 °F 41.2 °F 30.06 in Calm     93 % 0.00 in
00:36 43.0 °F 41.2 °F 30.06 in Calm     93 % 0.00 in
00:52 43.2 °F 41.4 °F 30.05 in Calm     93 % 0.00 in
00:57 43.0 °F 41.2 °F 30.05 in Calm     93 % 0.00 in
01:02 43.0 °F 41.2 °F 30.05 in Calm     93 % 0.00 in
01:07 43.0 °F 41.2 °F 30.05 in Calm     93 % 0.00 in
01:12 42.6 °F 40.5 °F 30.05 in Calm     92 % 0.00 in
01:17 42.4 °F 40.3 °F 30.05 in Calm     92 % 0.00 in
01:22 42.4 °F 40.6 °F 30.05 in Calm     93 % 0.00 in
01:27 42.4 °F 40.6 °F 30.05 in Calm     93 % 0.00 in
01:32 42.4 °F 40.6 °F 30.04 in Calm     93 % 0.00 in
01:37 42.3 °F 40.5 °F 30.05 in Calm     93 % 0.00 in
01:42 42.3 °F 40.5 °F 30.05 in Calm     93 % 0.00 in
01:47 42.1 °F 40.5 °F 30.05 in Calm     94 % 0.00 in
01:52 42.1 °F 40.5 °F 30.05 in Calm     94 % 0.00 in
01:57 41.5 °F 39.7 °F 30.04 in Calm     93 % 0.00 in
02:02 41.2 °F 39.4 °F 30.04 in Calm     93 % 0.00 in
02:07 40.8 °F 39.0 °F 30.04 in Calm     93 % 0.00 in
02:12 40.5 °F 38.7 °F 30.04 in Calm     93 % 0.00 in
02:13 40.5 °F 38.8 °F 30.04 in Calm     94 % 0.00 in
02:18 40.6 °F 39.4 °F 30.04 in Calm     95 % 0.00 in
02:23 40.6 °F 39.4 °F 30.04 in Calm     95 % 0.00 in
02:33 40.6 °F 39.4 °F 30.04 in Calm     95 % 0.00 in
02:38 40.6 °F 39.4 °F 30.04 in Calm     95 % 0.00 in
02:43 40.8 °F 39.6 °F 30.04 in Calm     95 % 0.00 in
02:53 41.2 °F 39.9 °F 30.03 in Calm     95 % 0.00 in
03:03 40.6 °F 39.4 °F 30.03 in Calm     95 % 0.00 in
03:08 40.6 °F 39.4 °F 30.03 in Calm     95 % 0.00 in
03:13 40.8 °F 39.6 °F 30.03 in Calm     95 % 0.00 in
03:23 40.8 °F 39.6 °F 30.03 in Calm     95 % 0.00 in
03:28 40.8 °F 39.6 °F 30.03 in Calm     95 % 0.00 in
03:33 40.8 °F 39.6 °F 30.03 in Calm     95 % 0.00 in
03:38 40.6 °F 39.4 °F 30.03 in Calm     95 % 0.00 in
03:43 40.6 °F 39.4 °F 30.02 in Calm     95 % 0.00 in
03:48 40.5 °F 39.2 °F 30.02 in Calm     95 % 0.00 in
03:53 40.5 °F 39.2 °F 30.02 in Calm     95 % 0.00 in
03:58 40.6 °F 39.6 °F 30.02 in Calm     96 % 0.00 in
04:03 40.6 °F 39.6 °F 30.02 in Calm     96 % 0.00 in
04:08 40.6 °F 39.6 °F 30.02 in Calm     96 % 0.00 in
04:13 40.6 °F 39.6 °F 30.02 in Calm     96 % 0.00 in
04:18 40.8 °F 39.7 °F 30.02 in Calm     96 % 0.00 in
04:23 40.8 °F 39.7 °F 30.02 in Calm     96 % 0.00 in
04:24 40.8 °F 39.7 °F 30.02 in Calm     96 % 0.00 in
04:29 40.6 °F 39.6 °F 30.02 in Calm     96 % 0.00 in
04:34 40.5 °F 39.4 °F 30.02 in Calm     96 % 0.00 in
04:39 40.3 °F 39.2 °F 30.02 in Calm     96 % 0.00 in
04:44 39.9 °F 38.8 °F 30.01 in Calm     96 % 0.00 in
04:49 39.7 °F 38.7 °F 30.01 in Calm     96 % 0.00 in
04:54 39.7 °F 38.7 °F 30.02 in Calm     96 % 0.00 in
04:59 39.7 °F 38.7 °F 30.02 in Calm     96 % 0.00 in
05:04 39.7 °F 38.7 °F 30.02 in Calm     96 % 0.00 in
05:09 39.7 °F 38.7 °F 30.02 in Calm     96 % 0.00 in
05:14 39.9 °F 38.8 °F 30.02 in Calm     96 % 0.00 in
05:19 40.1 °F 39.4 °F 30.02 in Calm     97 % 0.00 in
05:24 40.3 °F 39.6 °F 30.02 in Calm     97 % 0.00 in
05:29 40.3 °F 39.6 °F 30.02 in Calm     97 % 0.00 in
05:34 40.3 °F 39.6 °F 30.02 in Calm     97 % 0.00 in
05:39 39.9 °F 38.8 °F 30.02 in Calm     96 % 0.00 in
05:45 39.7 °F 38.7 °F 30.02 in Calm     96 % 0.00 in
05:50 39.6 °F 38.5 °F 30.02 in Calm     96 % 0.00 in
05:55 39.6 °F 38.8 °F 30.02 in Calm     97 % 0.00 in
06:00 39.4 °F 38.7 °F 30.02 in Calm     97 % 0.00 in
06:05 39.2 °F 38.1 °F 30.02 in Calm     96 % 0.00 in
06:10 39.2 °F 38.5 °F 30.02 in Calm     97 % 0.00 in
06:15 39.0 °F 38.3 °F 30.02 in Calm     97 % 0.00 in
06:20 38.7 °F 37.6 °F 30.02 in Calm     96 % 0.00 in
06:25 38.7 °F 37.9 °F 30.02 in Calm     97 % 0.00 in
06:30 39.0 °F 38.3 °F 30.03 in Calm     97 % 0.00 in
06:35 39.4 °F 38.7 °F 30.03 in Calm     97 % 0.00 in
06:40 39.4 °F 38.7 °F 30.03 in Calm     97 % 0.00 in
06:45 39.0 °F 38.3 °F 30.03 in Calm     97 % 0.00 in
06:50 39.2 °F 38.5 °F 30.03 in Calm     97 % 0.00 in
06:55 39.4 °F 38.7 °F 30.03 in Calm     97 % 0.00 in
07:00 39.4 °F 38.7 °F 30.03 in Calm     97 % 0.00 in
07:05 39.0 °F 38.3 °F 30.03 in Calm     97 % 0.00 in
07:10 38.8 °F 38.1 °F 30.03 in Calm     97 % 0.00 in
07:11 38.8 °F 38.1 °F 30.03 in Calm     97 % 0.00 in
07:16 39.2 °F 38.5 °F 30.04 in Calm     97 % 0.00 in
07:21 39.6 °F 39.0 °F 30.04 in Calm     98 % 0.00 in
07:26 40.1 °F 39.6 °F 30.04 in Calm     98 % 0.00 in
07:31 40.8 °F 40.3 °F 30.04 in Calm     98 % 0.00 in
07:36 41.5 °F 41.0 °F 30.04 in Calm     98 % 0.00 in
07:41 42.4 °F 41.9 °F 30.04 in Calm     98 % 0.00 in
07:46 44.1 °F 43.5 °F 30.04 in Calm     98 % 0.00 in
07:51 45.1 °F 44.6 °F 30.04 in Calm     98 % 0.00 in
07:56 45.7 °F 45.0 °F 30.05 in Calm     97 % 0.00 in
08:01 46.6 °F 46.0 °F 30.05 in Calm     98 % 0.00 in
08:06 47.3 °F 46.6 °F 30.05 in Calm   1.0 mph 97 % 0.00 in
08:11 48.2 °F 47.7 °F 30.05 in Calm   1.0 mph 98 % 0.00 in
08:16 49.5 °F 48.9 °F 30.05 in Calm   1.0 mph 98 % 0.00 in
08:21 50.5 °F 50.0 °F 30.05 in Calm   1.0 mph 98 % 0.00 in
08:26 51.3 °F 49.8 °F 30.05 in Calm   1.0 mph 95 % 0.00 in
08:31 52.0 °F 50.4 °F 30.05 in Calm   1.0 mph 94 % 0.00 in
08:36 52.9 °F 50.4 °F 30.05 in Calm   1.0 mph 91 % 0.00 in
08:41 53.6 °F 49.8 °F 30.05 in Calm   1.0 mph 87 % 0.00 in
08:46 54.3 °F 48.9 °F 30.05 in SSW 1.0 mph 1.0 mph 82 % 0.00 in
08:51 55.0 °F 48.0 °F 30.04 in Calm   3.0 mph 77 % 0.00 in
08:56 55.4 °F 47.7 °F 30.04 in Calm   4.0 mph 75 % 0.00 in
09:02 55.9 °F 47.8 °F 30.04 in SW 3.0 mph 4.0 mph 74 % 0.00 in
09:07 56.5 °F 47.5 °F 30.05 in SSW 2.0 mph 4.0 mph 72 % 0.00 in
09:12 57.0 °F 47.7 °F 30.05 in SW 3.0 mph 4.0 mph 71 % 0.00 in
09:17 57.6 °F 47.5 °F 30.05 in SW 4.0 mph 4.0 mph 69 % 0.00 in
09:20 57.7 °F 47.3 °F 30.05 in SSW 1.0 mph 4.0 mph 68 % 0.00 in
09:25 58.1 °F 47.1 °F 30.05 in SW 1.0 mph 5.0 mph 67 % 0.00 in
09:30 58.8 °F 47.5 °F 30.05 in SSE 3.0 mph 5.0 mph 66 % 0.00 in
09:35 59.5 °F 47.8 °F 30.05 in SE 2.0 mph 5.0 mph 65 % 0.00 in
09:40 60.1 °F 46.6 °F 30.05 in South 3.0 mph 5.0 mph 61 % 0.00 in
09:45 60.8 °F 47.7 °F 30.05 in Calm   6.0 mph 62 % 0.00 in
09:50 61.7 °F 46.8 °F 30.05 in Calm   6.0 mph 58 % 0.00 in
09:55 62.2 °F 47.3 °F 30.05 in SW 1.0 mph 6.0 mph 58 % 0.00 in
10:00 62.4 °F 44.6 °F 30.05 in SSW 4.0 mph 10.0 mph 52 % 0.00 in
10:05 62.4 °F 44.6 °F 30.04 in South 4.0 mph 10.0 mph 52 % 0.00 in
10:10 62.6 °F 44.8 °F 30.04 in SSW 5.0 mph 10.0 mph 52 % 0.00 in
10:15 62.8 °F 45.9 °F 30.04 in South 4.0 mph 9.0 mph 54 % 0.00 in
10:20 63.1 °F 45.1 °F 30.04 in SSW 3.0 mph 7.0 mph 52 % 0.00 in
10:25 63.5 °F 47.1 °F 30.04 in SE 3.0 mph 7.0 mph 55 % 0.00 in
10:30 64.0 °F 46.0 °F 30.04 in SW 4.0 mph 7.0 mph 52 % 0.00 in
10:35 64.8 °F 46.2 °F 30.04 in SW 4.0 mph 5.0 mph 51 % 0.00 in
10:40 65.1 °F 46.6 °F 30.03 in West 2.0 mph 6.0 mph 51 % 0.00 in
10:45 65.5 °F 45.9 °F 30.03 in WSW 1.0 mph 7.0 mph 49 % 0.00 in
10:50 66.0 °F 46.4 °F 30.03 in SSW 5.0 mph 7.0 mph 49 % 0.00 in
10:55 66.0 °F 44.1 °F 30.03 in SSW 2.0 mph 9.0 mph 45 % 0.00 in
11:00 66.0 °F 43.5 °F 30.02 in SSW 3.0 mph 9.0 mph 44 % 0.00 in
11:05 66.0 °F 45.1 °F 30.02 in Calm   9.0 mph 47 % 0.00 in
11:10 66.4 °F 44.4 °F 30.02 in SSW 3.0 mph 7.0 mph 45 % 0.00 in
11:15 66.9 °F 45.0 °F 30.02 in SW 3.0 mph 7.0 mph 45 % 0.00 in
11:20 67.5 °F 44.8 °F 30.02 in SW 5.0 mph 7.0 mph 44 % 0.00 in
11:25 67.5 °F 44.2 °F 30.01 in SSW 4.0 mph 7.0 mph 43 % 0.00 in
11:30 67.8 °F 45.1 °F 30.01 in SSW 2.0 mph 6.0 mph 44 % 0.00 in
11:35 68.5 °F 44.6 °F 30.01 in SW 3.0 mph 6.0 mph 42 % 0.00 in
11:40 68.9 °F 45.5 °F 30.01 in Calm   5.0 mph 43 % 0.00 in
11:45 69.1 °F 45.0 °F 30.01 in SE 3.0 mph 9.0 mph 42 % 0.00 in
11:50 68.9 °F 43.5 °F 30.01 in SSW 2.0 mph 9.0 mph 40 % 0.00 in
11:56 68.7 °F 44.8 °F 30.00 in ESE 2.0 mph 9.0 mph 42 % 0.00 in
12:01 69.3 °F 43.9 °F 30.00 in ESE 4.0 mph 8.0 mph 40 % 0.00 in
12:06 69.6 °F 45.0 °F 30.00 in Calm   5.0 mph 41 % 0.00 in
12:11 70.2 °F 44.8 °F 30.00 in SW 2.0 mph 7.0 mph 40 % 0.00 in
12:16 69.8 °F 42.4 °F 30.00 in SSW 4.0 mph 7.0 mph 37 % 0.00 in
12:21 69.6 °F 42.8 °F 29.99 in SW 3.0 mph 7.0 mph 38 % 0.00 in
12:26 69.6 °F 42.8 °F 29.99 in Calm   7.0 mph 38 % 0.00 in
12:31 70.2 °F 43.3 °F 29.99 in SSW 4.0 mph 7.0 mph 38 % 0.00 in
12:36 70.5 °F 43.0 °F 29.99 in SSE 3.0 mph 6.0 mph 37 % 0.00 in
12:41 70.3 °F 43.5 °F 29.98 in SSW 2.0 mph 5.0 mph 38 % 0.00 in
12:46 70.3 °F 44.2 °F 29.98 in South 4.0 mph 10.0 mph 39 % 0.00 in
12:51 70.5 °F 43.0 °F 29.98 in Calm   10.0 mph 37 % 0.00 in
12:56 71.2 °F 44.2 °F 29.97 in NNW 2.0 mph 10.0 mph 38 % 0.00 in
13:01 71.4 °F 42.3 °F 29.97 in SSE 6.0 mph 8.0 mph 35 % 0.00 in
13:06 71.1 °F 43.5 °F 29.96 in WSW 1.0 mph 8.0 mph 37 % 0.00 in
13:11 71.4 °F 44.4 °F 29.96 in SE 6.0 mph 8.0 mph 38 % 0.00 in
13:16 71.4 °F 43.2 °F 29.96 in SSE 4.0 mph 8.0 mph 36 % 0.00 in
13:21 71.4 °F 44.4 °F 29.96 in WSW 1.0 mph 9.0 mph 38 % 0.00 in
13:26 71.8 °F 44.8 °F 29.96 in WSW 4.0 mph 9.0 mph 38 % 0.00 in
13:31 72.1 °F 44.4 °F 29.95 in SSW 4.0 mph 9.0 mph 37 % 0.00 in
13:36 72.1 °F 44.4 °F 29.95 in SW 4.0 mph 7.0 mph 37 % 0.00 in
13:41 72.0 °F 42.1 °F 29.95 in South 2.0 mph 7.0 mph 34 % 0.00 in
13:46 72.3 °F 44.6 °F 29.94 in SW 7.0 mph 7.0 mph 37 % 0.00 in
13:51 72.3 °F 41.5 °F 29.94 in Calm   7.0 mph 33 % 0.00 in
13:56 72.3 °F 43.9 °F 29.94 in SW 4.0 mph 7.0 mph 36 % 0.00 in
13:58 72.3 °F 43.9 °F 29.94 in SSW 4.0 mph 7.0 mph 36 % 0.00 in
14:03 72.3 °F 43.2 °F 29.94 in SSW 1.0 mph 7.0 mph 35 % 0.00 in
14:08 72.7 °F 43.5 °F 29.94 in SSW 4.0 mph 7.0 mph 35 % 0.00 in
14:13 72.5 °F 44.8 °F 29.94 in Calm   7.0 mph 37 % 0.00 in
14:18 72.7 °F 41.9 °F 29.94 in SE 3.0 mph 7.0 mph 33 % 0.00 in
14:23 72.5 °F 44.1 °F 29.94 in SSE 4.0 mph 7.0 mph 36 % 0.00 in
14:28 72.7 °F 44.2 °F 29.93 in SW 3.0 mph 7.0 mph 36 % 0.00 in
14:33 72.9 °F 43.5 °F 29.93 in West 2.0 mph 7.0 mph 35 % 0.00 in
14:38 73.0 °F 43.7 °F 29.93 in WSW 1.0 mph 6.0 mph 35 % 0.00 in
14:43 73.0 °F 43.0 °F 29.93 in SSW 3.0 mph 7.0 mph 34 % 0.00 in
14:48 72.9 °F 42.8 °F 29.93 in South 5.0 mph 7.0 mph 34 % 0.00 in
14:53 72.9 °F 44.4 °F 29.92 in SW 2.0 mph 10.0 mph 36 % 0.00 in
14:58 72.9 °F 42.8 °F 29.92 in SE 4.0 mph 10.0 mph 34 % 0.00 in
15:03 72.7 °F 42.6 °F 29.92 in SW 5.0 mph 10.0 mph 34 % 0.00 in
15:08 72.9 °F 44.4 °F 29.92 in SW 3.0 mph 8.0 mph 36 % 0.00 in
15:13 72.9 °F 42.8 °F 29.92 in South 5.0 mph 7.0 mph 34 % 0.00 in
15:18 73.0 °F 43.0 °F 29.91 in SSE 5.0 mph 6.0 mph 34 % 0.00 in
15:23 72.9 °F 42.8 °F 29.91 in SW 5.0 mph 7.0 mph 34 % 0.00 in
15:28 72.7 °F 41.9 °F 29.91 in SSW 5.0 mph 7.0 mph 33 % 0.00 in
15:33 72.7 °F 42.6 °F 29.91 in South 5.0 mph 9.0 mph 34 % 0.00 in
15:38 72.3 °F 41.5 °F 29.91 in SSE 5.0 mph 9.0 mph 33 % 0.00 in
15:43 72.1 °F 40.6 °F 29.91 in ESE 4.0 mph 9.0 mph 32 % 0.00 in
15:48 72.1 °F 41.4 °F 29.91 in SSW 3.0 mph 12.0 mph 33 % 0.00 in
15:53 72.1 °F 41.4 °F 29.91 in South 3.0 mph 12.0 mph 33 % 0.00 in
15:58 72.0 °F 42.1 °F 29.91 in South 1.0 mph 12.0 mph 34 % 0.00 in
16:03 71.8 °F 41.9 °F 29.90 in SSW 5.0 mph 10.0 mph 34 % 0.00 in
16:08 71.4 °F 41.5 °F 29.90 in SW 3.0 mph 7.0 mph 34 % 0.00 in
16:13 71.2 °F 42.3 °F 29.90 in SSW 2.0 mph 7.0 mph 35 % 0.00 in
16:18 71.1 °F 42.1 °F 29.90 in South 3.0 mph 6.0 mph 35 % 0.00 in
16:23 70.9 °F 41.9 °F 29.90 in South 3.0 mph 8.0 mph 35 % 0.00 in
16:28 70.7 °F 41.7 °F 29.90 in SSW 6.0 mph 8.0 mph 35 % 0.00 in
16:33 70.5 °F 41.5 °F 29.89 in South 3.0 mph 8.0 mph 35 % 0.00 in
16:38 70.3 °F 41.4 °F 29.89 in SSW 3.0 mph 8.0 mph 35 % 0.00 in
16:43 70.2 °F 41.9 °F 29.89 in SSW 2.0 mph 8.0 mph 36 % 0.00 in
16:48 69.8 °F 41.7 °F 29.89 in SSW 2.0 mph 8.0 mph 36 % 0.00 in
16:53 69.6 °F 41.5 °F 29.89 in SSW 2.0 mph 6.0 mph 36 % 0.00 in
16:58 69.4 °F 42.1 °F 29.89 in SSW 2.0 mph 5.0 mph 37 % 0.00 in
17:03 69.1 °F 41.7 °F 29.89 in South 3.0 mph 5.0 mph 37 % 0.00 in
17:08 68.5 °F 41.9 °F 29.89 in SW 2.0 mph 5.0 mph 38 % 0.00 in
17:13 68.2 °F 42.3 °F 29.89 in SW 1.0 mph 5.0 mph 39 % 0.00 in
17:18 67.8 °F 41.9 °F 29.89 in SSW 1.0 mph 4.0 mph 39 % 0.00 in
17:23 67.6 °F 42.4 °F 29.89 in SW 1.0 mph 3.0 mph 40 % 0.00 in
17:28 67.1 °F 42.6 °F 29.90 in Calm   2.0 mph 41 % 0.00 in
17:33 66.6 °F 42.8 °F 29.90 in Calm   2.0 mph 42 % 0.00 in
17:38 66.0 °F 43.5 °F 29.89 in Calm   2.0 mph 44 % 0.00 in
17:43 65.1 °F 43.3 °F 29.90 in Calm   1.0 mph 45 % 0.00 in
17:48 64.4 °F 43.2 °F 29.90 in Calm   1.0 mph 46 % 0.00 in
17:53 63.7 °F 43.2 °F 29.90 in Calm   1.0 mph 47 % 0.00 in
17:58 63.0 °F 43.0 °F 29.90 in Calm   1.0 mph 48 % 0.00 in
18:04 62.4 °F 43.0 °F 29.90 in Calm   1.0 mph 49 % 0.00 in
18:09 62.1 °F 43.2 °F 29.90 in SE 2.0 mph 2.0 mph 50 % 0.00 in
18:14 62.2 °F 45.0 °F 29.90 in ESE 3.0 mph 3.0 mph 53 % 0.00 in
18:19 62.4 °F 46.0 °F 29.90 in Calm   5.0 mph 55 % 0.00 in
18:24 62.4 °F 46.9 °F 29.90 in SSE 1.0 mph 5.0 mph 57 % 0.00 in
18:29 62.2 °F 47.3 °F 29.90 in SE 1.0 mph 5.0 mph 58 % 0.00 in
18:34 62.1 °F 48.0 °F 29.90 in SE 1.0 mph 2.0 mph 60 % 0.00 in
18:36 62.1 °F 48.0 °F 29.90 in Calm   2.0 mph 60 % 0.00 in
18:41 61.9 °F 48.2 °F 29.90 in ESE 2.0 mph 3.0 mph 61 % 0.00 in
18:46 61.7 °F 48.6 °F 29.90 in SSE 1.0 mph 3.0 mph 62 % 0.00 in
18:51 61.5 °F 48.7 °F 29.90 in SE 3.0 mph 3.0 mph 63 % 0.00 in
18:56 61.5 °F 49.3 °F 29.89 in SSE 2.0 mph 3.0 mph 64 % 0.00 in
19:01 61.3 °F 49.1 °F 29.90 in ESE 2.0 mph 4.0 mph 64 % 0.00 in
19:06 61.3 °F 49.1 °F 29.90 in ESE 4.0 mph 4.0 mph 64 % 0.00 in
19:11 61.3 °F 49.5 °F 29.90 in Calm   4.0 mph 65 % 0.00 in
19:16 61.2 °F 49.3 °F 29.90 in SE 2.0 mph 4.0 mph 65 % 0.00 in
19:21 61.2 °F 49.3 °F 29.90 in ESE 2.0 mph 4.0 mph 65 % 0.00 in
19:26 61.0 °F 49.1 °F 29.90 in ESE 2.0 mph 3.0 mph 65 % 0.00 in
19:31 61.0 °F 49.1 °F 29.90 in SW 1.0 mph 4.0 mph 65 % 0.00 in
19:36 61.0 °F 49.1 °F 29.90 in SE 1.0 mph 4.0 mph 65 % 0.00 in
19:41 61.0 °F 49.1 °F 29.90 in SSE 3.0 mph 4.0 mph 65 % 0.00 in
19:46 61.0 °F 49.1 °F 29.91 in SSE 3.0 mph 4.0 mph 65 % 0.00 in
19:47 61.0 °F 49.1 °F 29.90 in South 3.0 mph 4.0 mph 65 % 0.00 in
19:52 60.8 °F 48.9 °F 29.91 in Calm   4.0 mph 65 % 0.00 in
19:57 60.4 °F 48.6 °F 29.91 in Calm   4.0 mph 65 % 0.00 in
20:02 60.3 °F 48.9 °F 29.91 in Calm   3.0 mph 66 % 0.00 in
20:07 59.9 °F 48.9 °F 29.91 in Calm   3.0 mph 67 % 0.00 in
20:12 59.5 °F 48.6 °F 29.91 in SSW 1.0 mph 3.0 mph 67 % 0.00 in
20:17 59.5 °F 48.6 °F 29.91 in South 1.0 mph 3.0 mph 67 % 0.00 in
20:22 59.4 °F 48.7 °F 29.91 in SSW 2.0 mph 3.0 mph 68 % 0.00 in
20:27 59.4 °F 48.7 °F 29.91 in Calm   3.0 mph 68 % 0.00 in
20:32 59.4 °F 48.7 °F 29.91 in SSW 1.0 mph 3.0 mph 68 % 0.00 in
20:37 59.2 °F 48.6 °F 29.91 in Calm   3.0 mph 68 % 0.00 in
20:42 58.6 °F 48.6 °F 29.91 in SSW 1.0 mph 2.0 mph 69 % 0.00 in
20:47 58.5 °F 48.4 °F 29.91 in Calm   1.0 mph 69 % 0.00 in
20:52 58.3 °F 48.6 °F 29.91 in SE 1.0 mph 1.0 mph 70 % 0.00 in
20:57 58.3 °F 48.9 °F 29.91 in Calm   2.0 mph 71 % 0.00 in
21:02 57.9 °F 48.6 °F 29.91 in Calm   2.0 mph 71 % 0.00 in
21:07 57.7 °F 48.4 °F 29.91 in SSW 1.0 mph 2.0 mph 71 % 0.00 in
21:12 57.6 °F 48.6 °F 29.91 in South 1.0 mph 3.0 mph 72 % 0.00 in
21:17 57.6 °F 48.6 °F 29.91 in South 1.0 mph 3.0 mph 72 % 0.00 in
21:18 57.6 °F 48.6 °F 29.91 in SSE 1.0 mph 3.0 mph 72 % 0.00 in
21:21 57.6 °F 48.6 °F 29.91 in SSW 1.0 mph 3.0 mph 72 % 0.00 in
21:23 57.6 °F 48.6 °F 29.91 in Calm   3.0 mph 72 % 0.00 in
21:25 57.6 °F 48.6 °F 29.91 in South 1.0 mph 2.0 mph 72 % 0.00 in
21:30 57.4 °F 48.7 °F 29.91 in SE 1.0 mph 2.0 mph 73 % 0.00 in
21:35 57.4 °F 48.7 °F 29.91 in SSW 1.0 mph 2.0 mph 73 % 0.00 in
21:40 57.2 °F 48.6 °F 29.91 in SE 1.0 mph 2.0 mph 73 % 0.00 in
21:45 57.0 °F 48.4 °F 29.91 in SSE 1.0 mph 1.0 mph 73 % 0.00 in
21:50 56.8 °F 48.6 °F 29.91 in Calm   2.0 mph 74 % 0.00 in
21:55 56.7 °F 48.4 °F 29.91 in Calm   2.0 mph 74 % 0.00 in
22:00 56.3 °F 48.6 °F 29.91 in Calm   2.0 mph 75 % 0.00 in
22:05 56.3 °F 48.9 °F 29.92 in SE 1.0 mph 2.0 mph 76 % 0.00 in
22:10 56.3 °F 48.9 °F 29.92 in Calm   2.0 mph 76 % 0.00 in
22:15 55.9 °F 48.6 °F 29.92 in Calm   2.0 mph 76 % 0.00 in
22:20 55.8 °F 48.4 °F 29.92 in Calm   1.0 mph 76 % 0.00 in
22:25 55.2 °F 48.2 °F 29.92 in Calm   1.0 mph 77 % 0.00 in
22:31 55.0 °F 48.4 °F 29.91 in Calm   1.0 mph 78 % 0.00 in
22:36 54.7 °F 48.4 °F 29.91 in SE 1.0 mph 1.0 mph 79 % 0.00 in
22:41 54.7 °F 48.6 °F 29.91 in Calm   1.0 mph 80 % 0.00 in
22:46 54.3 °F 48.2 °F 29.91 in Calm   1.0 mph 80 % 0.00 in
22:51 54.1 °F 48.4 °F 29.91 in Calm   1.0 mph 81 % 0.00 in
22:56 54.1 °F 48.4 °F 29.91 in Calm   1.0 mph 81 % 0.00 in
23:01 54.1 °F 48.4 °F 29.91 in Calm   1.0 mph 81 % 0.00 in
23:06 53.8 °F 48.0 °F 29.91 in Calm   1.0 mph 81 % 0.00 in
23:11 53.4 °F 48.0 °F 29.91 in Calm     82 % 0.00 in
23:16 53.2 °F 48.2 °F 29.91 in Calm     83 % 0.00 in
23:21 53.2 °F 48.6 °F 29.92 in Calm     84 % 0.00 in
23:26 53.4 °F 48.7 °F 29.91 in Calm     84 % 0.00 in
23:31 53.2 °F 48.2 °F 29.92 in Calm     83 % 0.00 in
23:36 52.9 °F 48.2 °F 29.92 in Calm     84 % 0.00 in
23:41 52.7 °F 48.0 °F 29.91 in Calm     84 % 0.00 in
23:46 52.3 °F 47.7 °F 29.91 in Calm     84 % 0.00 in
23:51 51.8 °F 47.1 °F 29.91 in Calm     84 % 0.00 in
23:56 51.4 °F 47.1 °F 29.91 in Calm     85 % 0.00 in
Spring, Texas: Villages of Bridgestone
Compliments of Weather Underground - 2.75 mb

Script developed by  Jim McMurry - jmcmurry@mwt.net Adapted for the template by  Wim van der Kuil - Leuven-Template.eu

You find our weather info also at:

UK Metoffice

WeatherCloud

Weather Underground

Mid-South Weather Network

AWEKAS

Citizen Weather Observer Program (CWOP)

HAMweather, WeatherForYou, PWS Weather

Equipment we use:

Weather-station
Davis Vantage Vue

Weather-program
Meteohub

Weather-server
Debian 7.9 x86 (Guest)

Provider
DreamHost

Davis Vantage Vue

Meteohub

Debian 7.9 x86 (Guest)

DreamHost